Погода в Лужках

Россия / Ивановская область     56°49′30″N   41°46′46″E
темп.,
°C
ветер,
м/с
пор.,
м/с
влажн.,
%
обл.,
%
осадки,
мм/ч
давл.,
гПа
погр.,
м
18 апреля, вс
вс1800:00+5всв312790 0.0 1024337
03:00+3всв311880 0.0 1024280
06:00+3всв411830 0.0 1024337
09:00+9всв510590 0.0 1024915
12:00+12всв684419 0.0 10231571
15:00+13всв674175 0.0 10232125
18:00+11всв6953100 0.0 10241110
21:00+6всв61279100 0.0 1026635
19 апреля, пн
пн1900:00+4всв51179100 0.0 1027608
03:00+3всв51172100 0.0 1027500
06:00+2всв51170100 0.0 1027529
09:00+4всв5958100 0.0 1028705
12:00+7в6950100 0.0 10281362
15:00+8в6838100 0.0 10281687
18:00+7всв51042100 0.0 10281554
21:00+4всв4125199 0.0 1028654
20 апреля, вт
вт2000:00+3в51354100 0.0 1028715
03:00+2в51255100 0.0 1028710
06:00+2в51361100 0.0 1028683
09:00+5вюв6115369 0.0 1027762
12:00+9вюв61053100 0.0 10271389
15:00+10вюв6105094 0.0 10251497
18:00+10вюв5114795 0.0 10231566
21:00+7вюв61348100 0.0 10221007
21 апреля, ср
ср2100:00+5вюв71546100 0.0 1019937
03:00+5вюв81748100 0.0 10161088
06:00+2вюв71896100 2.4 1014939
09:00+3вюв71688100 4.1 1012971
12:00+4юв71688100 0.1 10111027
15:00+5юв71688100 0.1 10101129
18:00+5юв81791100 0.3 10101033
21:00+6ю61283100 0.6 10121109
22 апреля, чт
чт2200:00+6ю61384100 0.1 10131292
03:00+6ю61380100 0.2 10151336
06:00+6ю51279100 0.1 1016853
09:00+7ююз61177100 0.1 10191142
12:00+10юз5964100 0.1 10201416
15:00+11юз476084 0.4 10211375
18:00+10ююз256259 0.2 1023195
21:00+6ю258154 0.2 102473